Regional Weather Roundup
Issued by NWS Portland, ME

Current Version | Previous Version | Text Only | Print | Product List | Glossary Off
Versions: 1 2 3 4 5 6 7 8 9 10 11 12 13 14 15 16 17 18 19 20 21 22 23 24 25 26 27 28 29 30 31 32 33 34 35 36 37 38 39 40 41 42 43 44 45 46 47 48 49 50
000 ASUS41 KGYX 280110 RWRGYX WEATHER ROUNDUP FOR MAINE AND NEW HAMPSHIRE NATIONAL WEATHER SERVICE GRAY ME 900 PM EDT MON MAR 27 2017 MEZ002-005-006-010-012-015-018-020-021-024-026-027-029-280200- MAINE CITY SKY/WX TMP DP RH WIND PRES REMARKS PORTLAND CLOUDY 34 32 92 N9 30.05S BAR HARBOR MIX PCPN 32 31 96 E14G21 30.08F FOG WISCASSET CLOUDY 34 33 96 VRB5 30.06S FOG ROCKLAND MIX PCPN 34 33 96 NE14G20 30.04F FOG FRYEBURG CLOUDY 33 31 92 NE5 30.05F LEWISTONAUBURN CLOUDY 32 32 100 N7 30.06S FOG AUGUSTA CLOUDY 31 29 92 N8 30.07S FOG WATERVILLE MIX PCPN 31 30 96 N10 30.05S FOG BANGOR FRZ DRZL 30 29 96 NE7 30.10F FOG GREENVILLE N/A 25 25 100 SE7 30.02F MILLINOCKET LGT SNOW 28 27 96 NE3 30.13F FOG HOULTON LGT SNOW 27 25 92 CALM 30.13S FOG PRESQUE ISLE FLURRIES 27 25 93 SE9 30.14F FRENCHVILLE LGT SNOW 22 19 89 E9 30.11S FOG CARIBOU LGT SNOW 25 22 88 E6 30.13S VSB 3/4 $$ NHZ002-005-008-009-011-012-014-280200- NEW HAMPSHIRE CITY SKY/WX TMP DP RH WIND PRES REMARKS PORTSMOUTH CLOUDY 36 35 94 N7 30.03R ROCHESTER CLOUDY 35 32 88 N7 30.03R NASHUA CLOUDY 37 37 100 N6 30.05R FOG MANCHESTER CLOUDY 37 33 85 NE8 30.03R CONCORD CLOUDY 36 33 89 NE5 30.04S LACONIA CLOUDY 34 32 92 E6 30.04S PLYMOUTH CLOUDY 34 33 96 CALM 30.03S BERLIN CLOUDY 34 30 85 N3 30.00S WHITEFIELD CLOUDY 35 29 78 E5 29.98S JAFFREY FOG 35 35 100 CALM 30.01R VSB 1/2 KEENE CLOUDY 37 34 89 CALM 30.03R LEBANON CLOUDY 35 34 96 CALM 30.01R MT WASHINGTON FOG 34 34 100 W36 N/A VSB 0 WCI 19 $$ VTZ005-007-008-280200- VERMONT CITY SKY/WX TMP DP RH WIND PRES REMARKS ST JOHNSBURY N/A 36 35 96 MISG 29.98S MONTPELIER CLOUDY 35 34 96 S6 30.01R BURLINGTON LGT RAIN 38 37 97 CALM 29.96R FOG $$ MAZ007-012-024-CTZ003-RIZ002-NYZ038-NYZ072-280200- SOUTHERN NEW ENGLAND AND NY CITY SKY/WX TMP DP RH WIND PRES REMARKS BOSTON CLOUDY 39 38 96 N9 30.03R WORCESTER FOG 36 35 96 NE3 30.00R VSB 1/4 NANTUCKET CLOUDY 43 42 97 W10 30.00R FOG PROVIDENCE CLOUDY 43 40 89 N7 30.01S HARTFORD CLOUDY 40 39 97 CALM 30.04R ALBANY CLOUDY 42 38 85 CALM 30.00R NEW YORK CITY MOCLDY 48 43 82 NE6 30.00R $$ ANZ081-ANZ082-ANZ150-NHZ014-MEZ023>029-280200- COASTAL MARINE OBSERVATIONS STATION/POSITION TIME TEMP WIND PRES WAVE AIR SEA DIR/SP/G HT/PER (UTC) (F) (DEG/KT/KT) (MB) (FT/S) MOUNT DESERT ROC 0000 36 1017.0F MATINICUS ROCK 0000 36 70/ 21/ 23 1015.5F ISLE OF SHOALS 0000 37 10/ 22/ 24 1016.3R JEFFREYS LEDGE 0006 42 N/A 6/ 7 CASHES LEDGE BUO 2350 40 40 1014.8 7/ 7 GEORGES BANK BUO 2350 45 41 1016.9 6/ 7 $$ .............KEY.............. WCI - WIND CHILL TC - TEMPERATURE IN CELSIUS VSB - VISIBILITY IN MILES HX - HEAT INDEX FAIR- INDICATES FEW OR NO CLOUDS BELOW 12,000 FT, WITH NO SIGNIFICANT WEATHER AND/OR OBSTRUCTIONS TO VISIBILITY.

USA.gov is the U.S. government's official web portal to all federal, state and local government web resources and services.